Regional Weather Roundup
Issued by NWS Charleston, SC

Home | Current Version | Previous Version | Text Only | Print | Product List | Glossary On
Versions: 1 2 3 4 5 6 7 8 9 10 11 12 13 14 15 16 17 18 19 20 21 22 23 24 25 26 27 28 29 30 31 32 33 34 35 36 37 38 39 40 41 42 43 44 45 46 47 48 49 50
000
ASUS42 KCHS 060827
RWRCHS

REGIONAL WEATHER ROUNDUP
NATIONAL WEATHER SERVICE CHARLESTON SC
300 AM EST SAT FEB 06 2016

NOTE: "FAIR" INDICATES FEW OR NO CLOUDS BELOW 12,000 FEET WITH NO
SIGNIFICANT WEATHER AND/OR OBSTRUCTIONS TO VISIBILITY.

NOT ALL STATIONS ARE QUALITY CONTROLLED BY THE NATIONAL
WEATHER SERVICE. USE DATA WITH CAUTION...ESPECIALLY
DEWPOINT OBSERVATIONS.

NOTICE: OBSERVATIONS FOR THE SAVANNAH-HILTON HEAD INTERNATIONAL AIRPORT
/KSAV/ HAVE BEEN TEMPORARILY REMOVED DUE TO AN ERRONEOUS TEMPERATURE
SENSOR. THE OBSERVATION WILL BE REINTRODUCED ONCE REPAIRS ARE COMPLETE.

SCZ027-030-031-034>040-042>050-060900-
...SOUTHEAST SOUTH CAROLINA...

CITY           SKY/WX    TMP DP  RH WIND       PRES   REMARKS
N CHARLESTON   CLEAR     35  29  78 N5        30.37F WCI  31
WATERFRONT PRK   N/A     43  36  76 NE7       30.21F
MOUNT PLEASANT FAIR      36  32  87 N3        30.38S
JOHNS ISLAND   FAIR      37  34  87 NW7       30.36F WCI  32
PINOPOLIS        N/A     43  32  65 E8        30.29F
MONCKS CORNER  FAIR      32  27  80 CALM      30.39R
SUMMERVILLE    NOT AVBL
BEAUFORT MCAS  CLEAR     37  30  75 N6        30.38S WCI  32
BEAUFORT ARPT  FAIR      37  32  81 N5        30.37S WCI  34
HILTON HEAD IS CLEAR     43  34  70 N9        30.36F
WALTERBORO     MOSUNNY   32  32 100 CALM      30.40R
ALLENDALE      FAIR      32  30  93 CALM      30.39R

...SOUTHERN MIDLANDS AND PEE DEE...

CITY           SKY/WX    TMP DP  RH WIND       PRES   REMARKS
GEORGETOWN     NOT AVBL
KINGSTREE      NOT AVBL
ORANGEBURG     CLEAR     32  27  81 CALM      30.39R
BARNWELL       FAIR      32  30  93 CALM      30.40R
AIKEN            N/A     28  25  86 CALM      30.40S
MANNING        FAIR      30  28  93 CALM      30.39S
COLUMBIA       CLEAR     29  24  82 SW3       30.39R
SUMTER         CLEAR     29  23  76 NE2       30.36S
FLORENCE       CLEAR     32  27  81 CALM      30.39S
MYRTLE BEACH   CLEAR     34  27  75 N5        30.41S WCI  30
N MYRTLE BEACH CLEAR     33  30  88 NE3       30.39R

$$

GAZ063-065-086>088-099>101-113>116-118-119-134>141-150-060900-
...SOUTHEAST GEORGIA...

CITY           SKY/WX    TMP DP  RH WIND       PRES   REMARKS
SAVANNAH ARPT  CLEAR     35  30  82 N6        30.37S WCI  30
HUNTER AAF     PTCLDY    40  30  68 N8        30.32F WCI  34
FORT STEWART   PTCLDY    33  29  86 N3        30.32F
STATESBORO     CLEAR     34  33  99 CALM      30.38S
SYLVANIA       SUNNY     32  32 100 CALM      30.38F
CLAXTON        FAIR      32  32  99 CALM      30.37F

...CSRA...CENTRAL AND FAR SOUTHEAST GEORGIA...

CITY           SKY/WX    TMP DP  RH WIND       PRES   REMARKS
THOMSON        CLOUDY    29  29 100 CALM      30.44R
AUGUSTA-BUSH   CLEAR     28  26  92 CALM      30.38S
AUGUSTA-DANIEL CLEAR     35  23  61 CALM      30.37S
SWAINSBORO     FAIR      36  27  69 CALM      30.40R
VIDALIA        CLEAR     36  30  80 CALM      30.38R
EASTMAN        FAIR      29  29 100 CALM      30.40S
HAZLEHURST     FAIR      36  32  84 NE3       30.36R
ALMA           CLEAR     37  30  75 VRB6      30.33F WCI  32
WAYCROSS       CLOUDY    42  35  74 NE5       30.32R
JESUP          FAIR      43  34  70 NE7       30.34R
BAXLEY         FAIR      34  34 100 N6        30.35R WCI  29
BRUNSWICK      MOCLDY    43  34  70 N8        30.31S
SAINT SIMONS   PTCLDY    43  36  76 N7        30.29F

$$

SCZ027-028-034-036>038-045-046-048>050-GAZ119-141-060900-
...LAKE AND SUPPLEMENTAL COASTAL OBSERVATIONS...

STATION/POSITION TIME  TEMP    WIND        PRES    WAVE   SWELL
                       AIR SEA DIR/SP/G            HT/PER HT/PER/DIR
                 (UTC) (F)     (DEG/KT/KT) (MB)    (FT/S) (FT/S/D)
WINYAH BAY       0700   39      10/  5     1027.0F
LAKE MURRAY      0700   34     360/  1/  2 1028.1F
ACE BASIN NERRS  0700   34        CALM     1028.0S
FORT PULASKI     0800   44 55  360/ 10/ 12 1027.4F
SAPELO ISLAND    0800   42      20/  8     1026.0F

$$

ANZ835-935-AMZ111-154-330-350-352-354-370-450-454-472-060900-
...C-MAN AND BUOY OBSERVATIONS...

STATION/POSITION TIME  TEMP    WIND        PRES    WAVE   SWELL
                       AIR SEA DIR/SP/G            HT/PER HT/PER/DIR
                 (UTC) (F)     (DEG/KT/KT) (MB)    (FT/S) (FT/S/D)
BUOY 41004       0750   52 67   30/ 14/ 19 1026.4F   4/ 9   2/ 9
BUOY 41008       0750   52 56   40/ 16/ 17 1026.0F   4/ 5   2/ 70/ 8
FOLLY BEACH CMAN 0800   46      10/ 14/ 17 1027.8F
CAPERS NEARSHORE 0708   48      50/ 14/ 19 1027.8F
FRIPP NEARSHORE  0700   49      50/ 12/ 14 1027.0F


STATION/POSITION TIME  TEMP    WIND        PRES    WAVE   SWELL
                       AIR SEA DIR/SP/G            HT/PER HT/PER/DIR
                 (UTC) (F)     (DEG/KT/KT) (MB)    (FT/S) (FT/S/D)
5E ST. MARYS GA  0751      58                N/A     5/ 5
FRYING PAN BUOY  0800   50 69   20/ 14/ 19 1027.3F
BUOY 41025       0750   45 73   10/ 14/ 19 1028.6F   7/10   7/ 50/10
CAPE LOOKOUT NC  NOT AVBL
BUOY 41002       0750   58 69   60/ 16/ 21   N/A    10/10   8/ 20/10
BUOY 41010       0720   66 73              1021.8F
ST AUGUSTINE FL  0800   55 59   20/ 26/ 30 1023.5F


$$



USA.gov is the U.S. government's official web portal to all federal, state and local government web resources and services.